| time (UTC) | temp F | wind direction | speed knots | gust knots | rain 1hr in | rain 24hr in | rain mn in | humidity % | barometer mb |
| 20260504025721 | 49 | 181 | 0.0 | 1.7 | 0.00 | 0.00 | 0.00 | 45 | 1013.8 |
| 20260504025217 | 48 | 33 | 0.0 | 1.7 | 0.00 | 0.00 | 0.00 | 46 | 1013.7 |
| 20260504024714 | 48 | 85 | 0.9 | 1.7 | 0.00 | 0.00 | 0.00 | 47 | 1013.8 |
| 20260504024211 | 48 | 64 | 0.9 | 1.7 | 0.00 | 0.00 | 0.00 | 48 | 1013.9 |
| 20260504023708 | 48 | 264 | 0.0 | 1.7 | 0.00 | 0.00 | 0.00 | 49 | 1013.7 |
| 20260504023203 | 47 | 41 | 0.0 | 1.7 | 0.00 | 0.00 | 0.00 | 50 | 1013.6 |
| 20260504022700 | 48 | 62 | 0.9 | 2.6 | 0.00 | 0.00 | 0.00 | 50 | 1013.7 |
| 20260504022156 | 48 | 54 | 0.0 | 1.7 | 0.00 | 0.00 | 0.00 | 48 | 1013.7 |
| 20260504021654 | 48 | 185 | 0.9 | 1.7 | 0.00 | 0.00 | 0.00 | 46 | 1013.7 |
| 20260504021150 | 48 | 47 | 0.0 | 1.7 | 0.00 | 0.00 | 0.00 | 48 | 1013.7 |
| 20260504020647 | 49 | 43 | 2.6 | 2.6 | 0.00 | 0.00 | 0.00 | 49 | 1013.8 |
| 20260504020143 | 50 | 40 | 1.7 | 1.7 | 0.00 | 0.00 | 0.00 | 47 | 1013.8 |
| 20260504015640 | 50 | 2 | 2.6 | 2.6 | 0.00 | 0.00 | 0.00 | 45 | 1013.7 |
| 20260504015137 | 49 | 211 | 0.0 | 2.6 | 0.00 | 0.00 | 0.00 | 43 | 1013.7 |
| 20260504014632 | 49 | 28 | 0.9 | 1.7 | 0.00 | 0.00 | 0.00 | 50 | 1013.5 |
| 20260504014130 | 48 | 128 | 0.9 | 1.7 | 0.00 | 0.00 | 0.00 | 47 | 1013.7 |
| 20260504013627 | 48 | 57 | 0.9 | 1.7 | 0.00 | 0.00 | 0.00 | 48 | 1013.6 |
| 20260504013124 | 48 | 44 | 2.6 | 2.6 | 0.00 | 0.00 | 0.00 | 50 | 1013.5 |
| 20260504012621 | 48 | 68 | 1.7 | 2.6 | 0.00 | 0.00 | 0.00 | 49 | 1013.5 |
| 20260504012120 | 48 | 121 | 0.0 | 1.7 | 0.00 | 0.00 | 0.00 | 49 | 1013.6 |
| 20260504011616 | 48 | 51 | 1.7 | 2.6 | 0.00 | 0.00 | 0.00 | 49 | 1013.6 |
| 20260504011112 | 49 | 29 | 0.9 | 2.6 | 0.00 | 0.00 | 0.00 | 49 | 1013.2 |
| 20260504010608 | 49 | 38 | 1.7 | 2.6 | 0.00 | 0.00 | 0.00 | 48 | 1013.3 |
| 20260504010104 | 49 | 22 | 0.0 | 1.7 | 0.00 | 0.00 | 0.00 | 46 | 1013.2 |
| 20260504005601 | 50 | 37 | 1.7 | 1.7 | 0.00 | 0.00 | 0.00 | 47 | 1013.2 |
| 20260504005058 | 50 | 37 | 2.6 | 2.6 | 0.00 | 0.00 | 0.00 | 44 | 1013.1 |
| 20260504004556 | 51 | 101 | 0.0 | 1.7 | 0.00 | 0.00 | 0.00 | 44 | 1013.0 |
| 20260504004053 | 51 | 118 | 0.0 | 1.7 | 0.00 | 0.00 | 0.00 | 44 | 1013.1 |
| 20260504003549 | 51 | 49 | 0.9 | 1.7 | 0.00 | 0.00 | 0.00 | 43 | 1012.9 |
| 20260504003046 | 52 | 48 | 1.7 | 2.6 | 0.00 | 0.00 | 0.00 | 42 | 1012.9 |
| 20260504002543 | 53 | 347 | 0.0 | 0.9 | 0.00 | 0.00 | 0.00 | 40 | 1013.0 |
| 20260504002040 | 53 | 41 | 0.0 | 1.7 | 0.00 | 0.00 | 0.00 | 41 | 1012.6 |
| 20260504001538 | 54 | 51 | 1.7 | 1.7 | 0.00 | 0.00 | 0.00 | 37 | 1012.7 |
| 20260504001034 | 54 | 154 | 0.0 | 1.7 | 0.00 | 0.00 | 0.00 | 36 | 1012.6 |
| 20260504000531 | 55 | 142 | 0.9 | 1.7 | 0.00 | 0.00 | 0.00 | 35 | 1012.6 |
| 20260504000028 | 55 | 322 | 1.7 | 1.7 | 0.00 | 0.00 | 0.00 | 35 | 1012.5 |
| 20260503235527 | 55 | 59 | 0.9 | 1.7 | 0.00 | 0.00 | 0.00 | 34 | 1012.3 |
| 20260503235023 | 55 | 230 | 2.6 | 3.5 | 0.00 | 0.00 | 0.00 | 34 | 1012.5 |
| 20260503234521 | 56 | 41 | 0.9 | 2.6 | 0.00 | 0.00 | 0.00 | 35 | 1012.4 |
| 20260503234019 | 56 | 86 | 1.7 | 1.7 | 0.00 | 0.00 | 0.00 | 36 | 1012.3 |
| 20260503233515 | 56 | 63 | 1.7 | 1.7 | 0.00 | 0.00 | 0.00 | 34 | 1012.2 |
| 20260503233011 | 57 | 114 | 0.0 | 1.7 | 0.00 | 0.00 | 0.00 | 32 | 1012.2 |
| 20260503232508 | 57 | 84 | 0.9 | 1.7 | 0.00 | 0.00 | 0.00 | 33 | 1012.0 |
| 20260503232006 | 57 | 105 | 1.7 | 3.5 | 0.00 | 0.00 | 0.00 | 32 | 1012.2 |
| 20260503231504 | 57 | 70 | 2.6 | 3.5 | 0.00 | 0.00 | 0.00 | 32 | 1012.2 |
| 20260503231000 | 57 | 37 | 1.7 | 2.6 | 0.00 | 0.00 | 0.00 | 31 | 1012.1 |
| 20260503230456 | 57 | 194 | 0.0 | 1.7 | 0.00 | 0.00 | 0.00 | 31 | 1012.2 |
| 20260503225954 | 57 | 19 | 1.7 | 2.6 | 0.00 | 0.00 | 0.00 | 31 | 1012.2 |
| 20260503225451 | 57 | 47 | 1.7 | 3.5 | 0.00 | 0.00 | 0.00 | 31 | 1012.1 |
| 20260503224946 | 58 | 41 | 0.9 | 4.3 | 0.00 | 0.00 | 0.00 | 30 | 1012.0 |
| 20260503224443 | 58 | 23 | 2.6 | 3.5 | 0.00 | 0.00 | 0.00 | 29 | 1012.1 |
| 20260503223941 | 58 | 357 | 4.3 | 7.0 | 0.00 | 0.00 | 0.00 | 29 | 1012.1 |
| 20260503223439 | 58 | 2 | 5.2 | 5.2 | 0.00 | 0.00 | 0.00 | 30 | 1012.2 |
| 20260503222934 | 58 | 342 | 2.6 | 7.8 | 0.00 | 0.00 | 0.00 | 29 | 1012.1 |
| 20260503222433 | 58 | 13 | 2.6 | 4.3 | 0.00 | 0.00 | 0.00 | 29 | 1012.1 |
| 20260503221931 | 58 | 10 | 5.2 | 5.2 | 0.00 | 0.00 | 0.00 | 29 | 1012.1 |
| 20260503221429 | 58 | 349 | 4.3 | 7.8 | 0.00 | 0.00 | 0.00 | 28 | 1012.0 |
| 20260503220925 | 59 | 107 | 0.0 | 6.1 | 0.00 | 0.00 | 0.00 | 28 | 1011.9 |
| 20260503220421 | 59 | 232 | 4.3 | 6.1 | 0.00 | 0.00 | 0.00 | 27 | 1011.9 |
| 20260503215919 | 59 | 25 | 3.5 | 5.2 | 0.00 | 0.00 | 0.00 | 27 | 1011.9 |
| 20260503215416 | 60 | 23 | 0.9 | 5.2 | 0.00 | 0.00 | 0.00 | 26 | 1011.9 |
| 20260503214913 | 59 | 121 | 1.7 | 3.5 | 0.00 | 0.00 | 0.00 | 28 | 1012.0 |
| 20260503214410 | 59 | 129 | 2.6 | 4.3 | 0.00 | 0.00 | 0.00 | 27 | 1011.8 |
| 20260503213908 | 59 | 27 | 3.5 | 7.8 | 0.00 | 0.00 | 0.00 | 27 | 1011.9 |
| 20260503213406 | 59 | 11 | 4.3 | 5.2 | 0.00 | 0.00 | 0.00 | 27 | 1011.7 |
| 20260503212902 | 60 | 343 | 4.3 | 8.7 | 0.00 | 0.00 | 0.00 | 26 | 1011.9 |
| 20260503212400 | 60 | 341 | 7.8 | 8.7 | 0.00 | 0.00 | 0.00 | 27 | 1011.8 |
| 20260503211857 | 60 | 334 | 2.6 | 3.5 | 0.00 | 0.00 | 0.00 | 26 | 1011.7 |
| 20260503211354 | 61 | 0 | 10.4 | 11.3 | 0.00 | 0.00 | 0.00 | 25 | 1011.8 |
| 20260503210848 | 60 | 64 | 0.9 | 3.5 | 0.00 | 0.00 | 0.00 | 27 | 1011.9 |
| 20260503210346 | 60 | 10 | 7.0 | 7.8 | 0.00 | 0.00 | 0.00 | 26 | 1011.8 |
| 20260503205841 | 60 | 4 | 4.3 | 5.2 | 0.00 | 0.00 | 0.00 | 28 | 1012.0 |
| 20260503205338 | 60 | 352 | 7.8 | 13.0 | 0.00 | 0.00 | 0.00 | 25 | 1011.8 |
| 20260503204834 | 60 | 339 | 4.3 | 5.2 | 0.00 | 0.00 | 0.00 | 26 | 1012.0 |
| 20260503204332 | 59 | 59 | 2.6 | 7.0 | 0.00 | 0.00 | 0.00 | 28 | 1011.9 |
| 20260503203829 | 59 | 0 | 10.4 | 13.0 | 0.00 | 0.00 | 0.00 | 26 | 1011.8 |
| 20260503203326 | 59 | 336 | 3.5 | 8.7 | 0.00 | 0.00 | 0.00 | 27 | 1012.0 |
| 20260503202823 | 59 | 14 | 1.7 | 4.3 | 0.00 | 0.00 | 0.00 | 27 | 1011.9 |
| 20260503202321 | 59 | 359 | 2.6 | 7.0 | 0.00 | 0.00 | 0.00 | 28 | 1012.1 |
| 20260503201819 | 58 | 0 | 3.5 | 8.7 | 0.00 | 0.00 | 0.00 | 28 | 1012.1 |
| 20260503201316 | 57 | 337 | 5.2 | 5.2 | 0.00 | 0.00 | 0.00 | 29 | 1012.1 |
| 20260503200814 | 57 | 10 | 3.5 | 6.1 | 0.00 | 0.00 | 0.00 | 30 | 1012.2 |
| 20260503200309 | 57 | 37 | 3.5 | 11.3 | 0.00 | 0.00 | 0.00 | 28 | 1012.3 |
| 20260503195807 | 58 | 353 | 4.3 | 7.0 | 0.00 | 0.00 | 0.00 | 28 | 1012.2 |
| 20260503195304 | 57 | 13 | 5.2 | 10.4 | 0.00 | 0.00 | 0.00 | 28 | 1012.4 |
| 20260503194800 | 57 | 355 | 4.3 | 9.6 | 0.00 | 0.00 | 0.00 | 30 | 1012.6 |
| 20260503194256 | 57 | 357 | 2.6 | 10.4 | 0.00 | 0.00 | 0.00 | 29 | 1012.4 |
| 20260503193753 | 56 | 13 | 4.3 | 10.4 | 0.00 | 0.00 | 0.00 | 29 | 1012.5 |
| 20260503193249 | 57 | 2 | 7.0 | 10.4 | 0.00 | 0.00 | 0.00 | 28 | 1012.6 |
| 20260503192745 | 58 | 289 | 2.6 | 4.3 | 0.00 | 0.00 | 0.00 | 30 | 1012.4 |
| 20260503192240 | 57 | 128 | 1.7 | 5.2 | 0.00 | 0.00 | 0.00 | 30 | 1012.6 |
| 20260503191737 | 57 | 354 | 7.8 | 12.2 | 0.00 | 0.00 | 0.00 | 29 | 1012.6 |
| 20260503191234 | 56 | 9 | 5.2 | 7.8 | 0.00 | 0.00 | 0.00 | 32 | 1012.4 |
| 20260503190731 | 56 | 343 | 4.3 | 7.8 | 0.00 | 0.00 | 0.00 | 31 | 1012.6 |
| 20260503190227 | 56 | 22 | 3.5 | 7.0 | 0.00 | 0.00 | 0.00 | 29 | 1012.9 |
| 20260503185725 | 57 | 5 | 6.1 | 13.0 | 0.00 | 0.00 | 0.00 | 27 | 1012.8 |
| 20260503185220 | 57 | 2 | 5.2 | 10.4 | 0.00 | 0.00 | 0.00 | 28 | 1012.6 |
| 20260503184715 | 56 | 2 | 4.3 | 9.6 | 0.00 | 0.00 | 0.00 | 29 | 1012.5 |
| 20260503184211 | 56 | 13 | 1.7 | 10.4 | 0.00 | 0.00 | 0.00 | 30 | 1012.5 |
| 20260503183708 | 56 | 303 | 7.0 | 7.8 | 0.00 | 0.00 | 0.00 | 29 | 1012.9 |
| 20260503183205 | 55 | 179 | 1.7 | 10.4 | 0.00 | 0.00 | 0.00 | 29 | 1012.7 |
| 20260503182704 | 54 | 15 | 1.7 | 5.2 | 0.00 | 0.00 | 0.00 | 33 | 1012.8 |
| 20260503182202 | 54 | 27 | 7.8 | 9.6 | 0.00 | 0.00 | 0.00 | 31 | 1012.9 |
| 20260503181658 | 54 | 0 | 7.8 | 13.9 | 0.00 | 0.00 | 0.00 | 29 | 1012.9 |
| 20260503181155 | 55 | 338 | 4.3 | 14.8 | 0.00 | 0.00 | 0.00 | 29 | 1012.7 |
| 20260503180651 | 55 | 21 | 6.1 | 8.7 | 0.00 | 0.00 | 0.00 | 33 | 1012.7 |
| 20260503180150 | 55 | 14 | 6.1 | 16.5 | 0.00 | 0.00 | 0.00 | 28 | 1013.0 |
| 20260503175647 | 55 | 0 | 3.5 | 7.8 | 0.00 | 0.00 | 0.00 | 28 | 1012.9 |
| 20260503175144 | 56 | 80 | 1.7 | 7.0 | 0.00 | 0.00 | 0.00 | 31 | 1013.0 |
| 20260503174640 | 55 | 329 | 1.7 | 4.3 | 0.00 | 0.00 | 0.00 | 30 | 1012.7 |
| 20260503174137 | 55 | 48 | 1.7 | 4.3 | 0.00 | 0.00 | 0.00 | 31 | 1013.0 |
| 20260503173632 | 56 | 12 | 5.2 | 12.2 | 0.00 | 0.00 | 0.00 | 28 | 1013.0 |
| 20260503173129 | 54 | 232 | 6.1 | 11.3 | 0.00 | 0.00 | 0.00 | 31 | 1013.3 |
| 20260503172626 | 54 | 357 | 2.6 | 3.5 | 0.00 | 0.00 | 0.00 | 31 | 1013.1 |
| 20260503172124 | 54 | 357 | 3.5 | 8.7 | 0.00 | 0.00 | 0.00 | 31 | 1013.1 |
| 20260503171620 | 53 | 4 | 4.3 | 8.7 | 0.00 | 0.00 | 0.00 | 33 | 1013.3 |
| 20260503171117 | 54 | 345 | 6.1 | 12.2 | 0.00 | 0.00 | 0.00 | 31 | 1013.3 |
| 20260503170614 | 53 | 21 | 4.3 | 5.2 | 0.00 | 0.00 | 0.00 | 35 | 1013.1 |
| 20260503170110 | 51 | 330 | 2.6 | 10.4 | 0.00 | 0.00 | 0.00 | 35 | 1013.3 |
| 20260503151006 | 47 | 354 | 7.8 | 8.7 | 0.00 | 0.00 | 0.00 | 46 | 1014.2 |
| 20260503150502 | 47 | 335 | 3.5 | 6.1 | 0.00 | 0.00 | 0.00 | 44 | 1014.3 |
| 20260503131355 | 45 | 351 | 1.7 | 6.1 | 0.00 | 0.00 | 0.00 | 53 | 1014.1 |
| 20260503130853 | 45 | 358 | 8.7 | 11.3 | 0.00 | 0.00 | 0.00 | 53 | 1014.0 |
| 20260503130350 | 44 | 6 | 5.2 | 5.2 | 0.00 | 0.00 | 0.00 | 55 | 1013.9 |
| 20260503110744 | 42 | 8 | 3.5 | 6.1 | 0.00 | 0.00 | 0.00 | 59 | 1013.4 |
| 20260503110241 | 42 | 4 | 3.5 | 5.2 | 0.00 | 0.00 | 0.00 | 59 | 1013.4 |
| 20260503100207 | 41 | 12 | 3.5 | 5.2 | 0.00 | 0.00 | 0.00 | 59 | 1012.4 |
| 20260503090131 | 42 | 14 | 5.2 | 6.1 | 0.00 | 0.00 | 0.00 | 55 | 1012.2 |
| 20260503081602 | 43 | 15 | 5.2 | 7.0 | 0.00 | 0.00 | 0.00 | 53 | 1011.8 |
| 20260503081059 | 44 | 21 | 2.6 | 5.2 | 0.00 | 0.00 | 0.00 | 53 | 1011.9 |
| 20260503080554 | 44 | 7 | 3.5 | 4.3 | 0.00 | 0.00 | 0.00 | 54 | 1011.8 |
| 20260503072528 | 44 | 358 | 4.3 | 5.2 | 0.00 | 0.00 | 0.00 | 51 | 1011.7 |
| 20260503072026 | 44 | 21 | 5.2 | 7.8 | 0.00 | 0.00 | 0.00 | 52 | 1011.6 |
| 20260503071522 | 44 | 18 | 3.5 | 5.2 | 0.00 | 0.00 | 0.00 | 52 | 1011.7 |
| 20260503071019 | 44 | 19 | 4.3 | 6.1 | 0.00 | 0.00 | 0.00 | 52 | 1011.5 |
| 20260503070515 | 44 | 25 | 4.3 | 5.2 | 0.00 | 0.00 | 0.00 | 52 | 1011.5 |
| 20260503054939 | 45 | 15 | 1.7 | 3.5 | 0.00 | 0.00 | 0.00 | 52 | 1012.0 |
| 20260503054436 | 45 | 6 | 2.6 | 3.5 | 0.00 | 0.00 | 0.00 | 52 | 1011.9 |
| 20260503053933 | 45 | 5 | 2.6 | 4.3 | 0.00 | 0.00 | 0.00 | 51 | 1012.0 |
| 20260503053431 | 45 | 4 | 3.5 | 5.2 | 0.00 | 0.00 | 0.00 | 52 | 1012.1 |
| 20260503052927 | 46 | 8 | 3.5 | 5.2 | 0.00 | 0.00 | 0.00 | 51 | 1012.1 |
| 20260503052425 | 46 | 359 | 3.5 | 4.3 | 0.00 | 0.00 | 0.00 | 51 | 1012.0 |
| 20260503051921 | 46 | 13 | 4.3 | 5.2 | 0.00 | 0.00 | 0.00 | 51 | 1012.1 |
| 20260503051417 | 46 | 21 | 4.3 | 5.2 | 0.00 | 0.00 | 0.00 | 52 | 1012.2 |
| 20260503050914 | 46 | 23 | 3.5 | 3.5 | 0.00 | 0.00 | 0.00 | 51 | 1012.1 |
| 20260503050410 | 46 | 19 | 3.5 | 4.3 | 0.00 | 0.00 | 0.00 | 51 | 1012.1 |
| 20260503045908 | 46 | 24 | 3.5 | 4.3 | 0.00 | 0.00 | 0.00 | 51 | 1012.4 |
| 20260503045405 | 46 | 355 | 5.2 | 5.2 | 0.00 | 0.00 | 0.00 | 51 | 1012.4 |
| 20260503044902 | 46 | 12 | 4.3 | 5.2 | 0.00 | 0.00 | 0.00 | 50 | 1012.3 |
| 20260503044359 | 46 | 11 | 3.5 | 5.2 | 0.00 | 0.00 | 0.00 | 51 | 1012.6 |
| 20260503043856 | 46 | 10 | 2.6 | 4.3 | 0.00 | 0.00 | 0.00 | 50 | 1012.5 |
| 20260503043353 | 46 | 356 | 3.5 | 4.3 | 0.00 | 0.00 | 0.00 | 51 | 1012.4 |
| 20260503042849 | 46 | 18 | 4.3 | 5.2 | 0.00 | 0.00 | 0.00 | 49 | 1012.6 |
| 20260503042346 | 46 | 20 | 2.6 | 4.3 | 0.00 | 0.00 | 0.00 | 49 | 1012.8 |
| 20260503041841 | 46 | 16 | 3.5 | 4.3 | 0.00 | 0.00 | 0.00 | 49 | 1012.9 |
| 20260503041339 | 46 | 27 | 1.7 | 3.5 | 0.00 | 0.00 | 0.00 | 50 | 1012.8 |
| 20260503040837 | 46 | 21 | 3.5 | 3.5 | 0.00 | 0.00 | 0.00 | 49 | 1012.7 |
| 20260503040334 | 47 | 3 | 3.5 | 4.3 | 0.00 | 0.00 | 0.00 | 49 | 1012.7 |
| 20260503035831 | 47 | 22 | 3.5 | 3.5 | 0.00 | 0.06 | 0.06 | 48 | 1012.6 |
| 20260503035328 | 47 | 25 | 5.2 | 5.2 | 0.00 | 0.06 | 0.06 | 48 | 1012.8 |
| 20260503034825 | 47 | 15 | 3.5 | 4.3 | 0.00 | 0.06 | 0.06 | 48 | 1012.7 |
| 20260503034323 | 47 | 10 | 2.6 | 4.3 | 0.00 | 0.06 | 0.06 | 48 | 1012.6 |
| 20260503033820 | 47 | 358 | 4.3 | 4.3 | 0.00 | 0.06 | 0.06 | 48 | 1012.6 |
| 20260503033317 | 47 | 16 | 2.6 | 3.5 | 0.00 | 0.06 | 0.06 | 47 | 1012.7 |
| 20260503032815 | 47 | 18 | 3.5 | 4.3 | 0.00 | 0.06 | 0.06 | 47 | 1012.6 |
| 20260503032314 | 47 | 9 | 3.5 | 3.5 | 0.00 | 0.06 | 0.06 | 48 | 1012.8 |
| 20260503031811 | 47 | 7 | 2.6 | 3.5 | 0.00 | 0.06 | 0.06 | 47 | 1012.5 |
| 20260503031309 | 47 | 8 | 3.5 | 3.5 | 0.00 | 0.06 | 0.06 | 46 | 1012.7 |
| 20260503030804 | 48 | 23 | 2.6 | 3.5 | 0.00 | 0.06 | 0.06 | 47 | 1012.7 |
| 20260503030301 | 48 | 4 | 3.5 | 3.5 | 0.00 | 0.06 | 0.06 | 46 | 1012.7 |